Volver al catálogo

STARLINK-3668

ActivoComunicacionesVLEO
NORAD 52002·PAYLOAD·🇺🇸 United States

Lanzado Mar 9, 2022 desde Cape Canaveral Space Force Station

Loading…

Próximos Pases (próximas 24 horas)

TLE

ActualizadoSource: CelesTrak SupGP

Época: Sep 14, 2026, 21:48 UTC

1 52002C 22025AY  26257.90881944  .00022531  00000+0  66562-3 0  2572
2 52002  53.1589 239.7501 0001263  89.3778 204.9645 15.34382073    10

Sigue STARLINK-3668 en tiempo real con AllMySat

Download on the App Store